Flag for Brazil Weather past 2 weeks in Vitória, Espírito Santo, Brazil

Now
75 °F

Sunny.


Feels Like: 77 °F
Forecast: 74 / 92 °F
Wind: 7 mph from Southeast

Location: Belo Horizonte Airport

Current Time: Jan 31, 2015 at 8:26:43 AM

Latest Report: Jan 31, 2015 at 8:00 AM


Visibility: 10 mi

Pressure: 30.09 "Hg

Humidity: 69%

Dew point: 64 °F

Location of VitóriaLocation

Historic Weather in Vitória — Graph

°F

Vitória temperature yesterday

Maximum temperature yesterday: 91 °F (at 4:00 PM)
Minimum temperature yesterday: 72 °F (at 4:00 AM)
Average temperature yesterday: 80 °F

Past Weeks' High & Low Weather Summary

 TemperatureHumidityPressure
High95 °F (Jan 21, 4:00 PM)94% (Jan 24, 5:00 PM)30.18 "Hg (Jan 24, 5:00 PM)
Low64 °F (Jan 25, 12:00 AM)20% (Jan 17, 5:00 PM)29.92 "Hg (Jan 21, 5:00 PM)
Average77 °F59%30.06 "Hg
* Reported Jan 16 7:00 AM — Jan 31 7:00 AM, Vitória, Weather by CustomWeather, © 2014

Note: Actual official high and low records may vary slightly from our data, if they occured in-between our weather recording intervals... More about our weather records

Advertising

Vitória weather history for previous 24 hours

 ConditionsComfort  
Time TempWeatherWind HumidityBarometerVisibility
7:00 AM
Jan 31
73 °FClear.8 mph74%30.07 "Hg10 mi
6:00 AM70 °FClear.8 mph83%30.04 "Hg10 mi
5:00 AM72 °FClear.6 mph78%30.04 "Hg10 mi
4:00 AM73 °FClear.5 mph74%30.04 "Hg10 mi
3:00 AM73 °FClear.6 mph74%30.04 "Hg10 mi
2:00 AM73 °FClear.7 mph74%30.04 "Hg10 mi
1:00 AM75 °FClear.5 mph69%30.07 "Hg10 mi
12:00 AM75 °FClear.5 mph65%30.04 "Hg10 mi
11:00 PM
Jan 30
77 °FClear.16 mph65%30.07 "Hg10 mi
10:00 PM79 °FClear.5 mph61%30.04 "Hg10 mi
9:00 PM81 °FClear.6 mph54%30.04 "Hg10 mi
8:00 PM81 °FSunny.7 mph58%30.01 "Hg10 mi
7:00 PM82 °FScattered clouds.9 mph55%29.98 "HgN/A
6:00 PM84 °FScattered clouds.12 mph48%29.98 "HgN/A
5:00 PM88 °FScattered clouds.9 mph46%30.01 "HgN/A
4:00 PM91 °FScattered clouds.12 mph41%29.98 "HgN/A
3:00 PM90 °FPartly sunny.6 mph36%30.01 "HgN/A
2:00 PM88 °FPartly sunny.6 mph40%30.04 "HgN/A
1:00 PM88 °FScattered clouds.5 mph40%30.07 "HgN/A
12:00 PM84 °FPassing clouds.7 mph48%30.07 "HgN/A
11:00 AM84 °FPassing clouds.3 mph48%30.09 "HgN/A
10:00 AM82 °FPassing clouds.2 mph51%30.09 "HgN/A
9:00 AM77 °FPassing clouds.3 mph69%30.07 "HgN/A
8:00 AM75 °FPassing clouds.5 mph69%30.04 "HgN/A
Weather by CustomWeather, © 2014

See weather overviewHow to use our weather pages